UFO 4 (USA 108)

Last updated on Sun Apr 12 2026 00:02:50 GMT+0000 (Coordinated Universal Time)

1 23467U 95003A 26101.54805166 -.00000016 00000+0 00000+0 0 9990 2 23467 9.7027 13.4517 0003516 1.3787 194.5362 1.00270621114286
UTC large
Height (km)
Speed (km/s)
/
Latitude / Longitude
Inclination (degrees)
Orbital Period (minutes)
Azimuth
Elevation
Range (km)
Doppler Factor

Next 0 passes for location: London (51.5072 / 0.1276)

Sorry there are no passes over London.
UFO 4 (USA 108)